Location: Rounton
(54.4000°N, 1.3500°W)
Time: 15:17:49
(UTC+00:00)

Transit 2A - Pass Details

Date: 03 December 2021
Orbit: 591 x 967 km, 66.7° (Epoch: 21 January)

Event Time Altitude Azimuth Distance (km) Brightness Sun altitude
Rises 07:51:23 0° 316° (NW) 3,636 - -2.6°
Exits shadow 07:52:02 - 317° (NW) 3,400 8.7 -2.5°
Reaches altitude 10° 07:53:57 10° 319° (NW) 2,706 8.2 -2.3°
Maximum altitude 08:00:22 72° 44° (NE) 1,017 6.7 -1.5°
Drops below altitude 10° 08:06:39 10° 129° (SE) 2,656 11.1 -0.8°
Sets 08:09:09 0° 131° (SE) 3,564 13.5 -0.5°
